Погода в Милотичах

Россия / Калужская область     54°13′33″N   34°29′26″E
темп.,
°C
ветер,
м/с
пор.,
м/с
влажн.,
%
обл.,
%
осадки,
мм/ч
давл.,
гПа
погр.,
м
12 мая, ср
ср1200:00+12юв498717 0.0 1024476
03:00+8юв37965 0.0 1025159
06:00+7вюв35890 0.0 1026133
09:00+12вюв246566 0.0 1025597
12:00+15всв4554100 0.0 10231341
15:00+12всв5778100 0.1 1021469
18:00+9юв2398100 3.6 1018181
21:00+8юв369712 3.8 1017162
13 мая, чт
чт1300:00+6в38956 0.0 1018167
03:00+7всв6159287 0.3 1016468
06:00+9юв6119084 0.1 1016735
09:00+11юв697898 0.1 1016996
12:00+13юв6973100 0.4 10151094
15:00+15ююв576249 0.8 10141532
18:00+14ю46655 0.2 10131114
21:00+8ю338492 0.2 101537
14 мая, пт
пт1400:00+7ююв23913 0.0 101630
03:00+6юв359234 0.0 101671
06:00+8вюв3990100 0.0 1016198
09:00+13вюв5873100 0.0 1014403
12:00+15вюв51081100 0.1 1013612
15:00+20юв696813 1.4 10111278
18:00+18ююв598180 3.0 1009513
21:00+14ююв349476 8.6 100966
15 мая, сб
сб1500:00+13ююв349579 0.5 100959
03:00+12ююв229455 0.5 100928
06:00+12ююв25962 0.1 1009114
09:00+17ююз468258 0.1 1008508
12:00+20ююз466671 1.2 10081303
15:00+20ююз57634 2.3 10081371
18:00+17юз5782100 2.1 1008482
21:00+13юз4109435 4.3 1010244
16 мая, вс
вс1600:00+11юз39955 0.0 1011188
03:00+10ююз36945 0.0 1012107
06:00+10ююз38955 0.0 1013218
09:00+14ююз478114 0.0 1013662
12:00+17юз576579 0.1 10141401
15:00+20зюз4655100 0.1 10141880
18:00+18сз127077 0.0 1014182
21:00+14всв2279100 0.0 101411